When you browse on this site, cookies collect data to enhance your experience and personalize the content and advertising you see.
Visit our Privacy Policy to learn more. By continuing to use the site, you agree to this use of cookies and data.
  • In Lithuania
  • List of Countries
  • For 7 days
  • Water Temperature
  • Satellite Maps
  • Weather Map
  • Weather Widgets
  • user-avatar
    Login

    Hourly Weather Yahnovo

    Today, 26 May, Sunday

    Time Temperature Precipitation Wind Pressure Humidity
    00:00 +11°C° 0 mm 1 mps 743 mmHg 95%
    01:00 +9°C° 0 mm 2 mps 743 mmHg 96%
    02:00 +10°C° 0 mm 1 mps 743 mmHg 96%
    03:00 +10°C° 0 mm 1 mps 743 mmHg 96%
    04:00 +10°C° 0 mm 1 mps 743 mmHg 96%
    05:00 +10°C° 0 mm 1 mps 743 mmHg 95%
    06:00 +10°C° 0 mm 2 mps 743 mmHg 89%
    07:00 +12°C° 0 mm 2 mps 743 mmHg 84%
    08:00 +14°C° 0 mm 2 mps 743 mmHg 77%
    09:00 +14°C° 0 mm 3 mps 743 mmHg 70%
    10:00 +16°C° 0 mm 3 mps 743 mmHg 63%
    11:00 +17°C° 0 mm 3 mps 743 mmHg 56%
    12:00 +17°C° 0 mm 3 mps 743 mmHg 56%
    13:00 +17°C° 0 mm 3 mps 743 mmHg 56%
    14:00 +17°C° 0 mm 4 mps 742 mmHg 57%
    15:00 +18°C° 0 mm 4 mps 742 mmHg 56%
    16:00 +18°C° 0 mm 4 mps 742 mmHg 56%
    17:00 +18°C° 0 mm 3 mps 742 mmHg 56%
    18:00 +17°C° 0.1 mm 3 mps 742 mmHg 65%
    19:00 +14°C° 0.1 mm 3 mps 742 mmHg 74%
    20:00 +13°C° 0.1 mm 3 mps 742 mmHg 82%
    21:00 +12°C° 0 mm 3 mps 742 mmHg 83%
    22:00 +11°C° 0 mm 3 mps 742 mmHg 84%
    23:00 +10°C° 0 mm 3 mps 742 mmHg 85%

    Tomorrow, 27 May, Monday

    Time Temperature Precipitation Wind Pressure Humidity
    00:00 +9°C° 0 mm 3 mps 742 mmHg 86%
    01:00 +9°C° 0 mm 3 mps 742 mmHg 87%
    02:00 +8°C° 0 mm 3 mps 742 mmHg 89%
    03:00 +9°C° 0 mm 3 mps 742 mmHg 88%
    04:00 +9°C° 0 mm 3 mps 742 mmHg 87%
    05:00 +10°C° 0 mm 3 mps 742 mmHg 87%
    06:00 +11°C° 0.1 mm 4 mps 743 mmHg 86%
    07:00 +12°C° 0.1 mm 4 mps 743 mmHg 84%
    08:00 +13°C° 0.1 mm 4 mps 743 mmHg 83%
    09:00 +14°C° 0.1 mm 4 mps 743 mmHg 78%
    10:00 +15°C° 0.1 mm 5 mps 743 mmHg 73%
    11:00 +16°C° 0.1 mm 5 mps 744 mmHg 67%
    12:00 +16°C° 0.2 mm 5 mps 744 mmHg 73%
    13:00 +15°C° 0.2 mm 5 mps 744 mmHg 79%
    14:00 +15°C° 0.2 mm 5 mps 744 mmHg 85%
    15:00 +14°C° 0.2 mm 4 mps 744 mmHg 88%
    16:00 +14°C° 0.2 mm 3 mps 744 mmHg 90%
    17:00 +14°C° 0.2 mm 3 mps 744 mmHg 93%
    18:00 +15°C° 0 mm 2 mps 744 mmHg 94%
    19:00 +15°C° 0 mm 2 mps 744 mmHg 95%
    20:00 +15°C° 0 mm 2 mps 744 mmHg 96%
    21:00 +15°C° 0.2 mm 2 mps 744 mmHg 96%
    22:00 +15°C° 0.2 mm 2 mps 745 mmHg 97%
    23:00 +14°C° 0.2 mm 2 mps 745 mmHg 97%

    Day after tomorrow, 28 May, Tuesday

    Time Temperature Precipitation Wind Pressure Humidity
    00:00 +14°C° 0 mm 2 mps 745 mmHg 97%
    01:00 +14°C° 0 mm 2 mps 745 mmHg 98%
    02:00 +13°C° 0 mm 2 mps 746 mmHg 98%
    03:00 +13°C° 0 mm 2 mps 746 mmHg 98%
    04:00 +14°C° 0 mm 2 mps 746 mmHg 97%
    05:00 +14°C° 0 mm 2 mps 747 mmHg 97%
    06:00 +15°C° 0 mm 2 mps 747 mmHg 93%
    07:00 +17°C° 0 mm 2 mps 747 mmHg 89%
    08:00 +18°C° 0 mm 2 mps 747 mmHg 85%
    09:00 +20°C° 0.1 mm 2 mps 747 mmHg 78%
    10:00 +22°C° 0.1 mm 3 mps 747 mmHg 71%
    11:00 +24°C° 0.1 mm 3 mps 747 mmHg 64%
    12:00 +24°C° 0.7 mm 3 mps 747 mmHg 71%
    13:00 +22°C° 0.7 mm 3 mps 746 mmHg 78%
    14:00 +21°C° 0.7 mm 2 mps 746 mmHg 85%
    15:00 +21°C° 1.4 mm 2 mps 746 mmHg 88%
    16:00 +20°C° 1.4 mm 3 mps 746 mmHg 91%
    17:00 +19°C° 1.4 mm 3 mps 745 mmHg 94%
    18:00 +19°C° 0.6 mm 3 mps 745 mmHg 94%
    19:00 +19°C° 0.6 mm 3 mps 745 mmHg 94%
    20:00 +19°C° 0.6 mm 3 mps 745 mmHg 94%
    21:00 +19°C° 0.4 mm 3 mps 745 mmHg 94%
    22:00 +19°C° 0.4 mm 3 mps 745 mmHg 94%
    23:00 +18°C° 0.4 mm 3 mps 745 mmHg 94%

    29 May, Wednesday

    Time Temperature Precipitation Wind Pressure Humidity
    00:00 +18°C° 0.1 mm 3 mps 745 mmHg 95%
    01:00 +18°C° 0.1 mm 3 mps 746 mmHg 95%
    02:00 +18°C° 0.1 mm 3 mps 746 mmHg 95%
    03:00 +17°C° 0 mm 3 mps 746 mmHg 95%
    04:00 +17°C° 0 mm 3 mps 746 mmHg 95%
    05:00 +17°C° 0 mm 3 mps 746 mmHg 94%
    06:00 +19°C° 0 mm 4 mps 746 mmHg 88%
    07:00 +20°C° 0 mm 4 mps 746 mmHg 83%
    08:00 +22°C° 0 mm 5 mps 746 mmHg 77%
    09:00 +23°C° 0 mm 5 mps 746 mmHg 68%
    10:00 +26°C° 0 mm 6 mps 746 mmHg 58%
    11:00 +27°C° 0 mm 6 mps 746 mmHg 49%
    12:00 +28°C° 0 mm 6 mps 746 mmHg 48%
    13:00 +28°C° 0 mm 6 mps 746 mmHg 46%
    14:00 +28°C° 0 mm 6 mps 746 mmHg 45%
    15:00 +28°C° 0 mm 6 mps 746 mmHg 49%
    16:00 +27°C° 0 mm 6 mps 746 mmHg 53%
    17:00 +26°C° 0 mm 6 mps 746 mmHg 58%
    18:00 +23°C° 0 mm 5 mps 746 mmHg 64%
    19:00 +22°C° 0 mm 4 mps 746 mmHg 69%
    20:00 +20°C° 0 mm 3 mps 746 mmHg 75%
    21:00 +19°C° 0.5 mm 3 mps 746 mmHg 81%
    22:00 +19°C° 0.5 mm 4 mps 746 mmHg 86%
    23:00 +18°C° 0.5 mm 4 mps 746 mmHg 92%

    30 May, Thursday

    Time Temperature Precipitation Wind Pressure Humidity
    00:00 +18°C° 0.2 mm 3 mps 747 mmHg 93%
    01:00 +18°C° 0.2 mm 3 mps 747 mmHg 94%
    02:00 +18°C° 0.2 mm 3 mps 747 mmHg 95%
    03:00 +18°C° 0.5 mm 3 mps 747 mmHg 96%
    04:00 +18°C° 0.5 mm 3 mps 747 mmHg 96%
    05:00 +18°C° 0.5 mm 3 mps 748 mmHg 97%
    06:00 +16°C° 0.2 mm 3 mps 748 mmHg 96%
    07:00 +14°C° 0.2 mm 3 mps 749 mmHg 96%
    08:00 +12°C° 0.2 mm 3 mps 749 mmHg 95%
    09:00 +13°C° 0 mm 3 mps 750 mmHg 88%
    10:00 +14°C° 0 mm 3 mps 750 mmHg 81%
    11:00 +16°C° 0 mm 3 mps 751 mmHg 73%
    12:00 +17°C° 0 mm 3 mps 751 mmHg 64%
    13:00 +19°C° 0 mm 2 mps 751 mmHg 56%
    14:00 +20°C° 0 mm 2 mps 752 mmHg 47%
    15:00 +20°C° 0 mm 2 mps 752 mmHg 46%
    16:00 +20°C° 0 mm 2 mps 752 mmHg 46%
    17:00 +20°C° 0 mm 2 mps 752 mmHg 45%
    18:00 +18°C° 0 mm 2 mps 752 mmHg 53%
    19:00 +18°C° 0 mm 1 mps 752 mmHg 61%
    20:00 +15°C° 0 mm 1 mps 753 mmHg 68%
    21:00 +14°C° 0 mm 1 mps 753 mmHg 70%
    22:00 +13°C° 0 mm 1 mps 753 mmHg 71%
    23:00 +12°C° 0 mm 1 mps 753 mmHg 73%

    31 May, Friday

    Time Temperature Precipitation Wind Pressure Humidity
    00:00 +12°C° 0 mm 1 mps 753 mmHg 73%
    01:00 +11°C° 0 mm 1 mps 753 mmHg 73%
    02:00 +11°C° 0 mm 1 mps 753 mmHg 73%
    03:00 +11°C° 0 mm 1 mps 753 mmHg 73%
    04:00 +12°C° 0 mm 1 mps 752 mmHg 73%
    05:00 +12°C° 0 mm 1 mps 752 mmHg 73%
    06:00 +15°C° 0 mm 1 mps 752 mmHg 68%
    07:00 +18°C° 0 mm 1 mps 752 mmHg 64%
    08:00 +18°C° 0 mm 0 mps 751 mmHg 59%
    09:00 +20°C° 0 mm 0 mps 751 mmHg 57%
    10:00 +22°C° 0 mm 0 mps 751 mmHg 54%
    11:00 +23°C° 0 mm 0 mps 750 mmHg 51%
    12:00 +25°C° 0 mm 1 mps 750 mmHg 51%
    13:00 +25°C° 0 mm 1 mps 750 mmHg 52%
    14:00 +25°C° 0 mm 1 mps 749 mmHg 52%
    15:00 +25°C° 0 mm 1 mps 749 mmHg 53%
    16:00 +25°C° 0 mm 1 mps 749 mmHg 54%
    17:00 +25°C° 0 mm 1 mps 749 mmHg 55%
    18:00 +23°C° 0 mm 1 mps 748 mmHg 63%
    19:00 +21°C° 0 mm 1 mps 748 mmHg 70%
    20:00 +17°C° 0 mm 0 mps 748 mmHg 78%
    21:00 +19°C° 0 mm 1 mps 748 mmHg 80%
    22:00 +18°C° 0 mm 1 mps 749 mmHg 82%
    23:00 +16°C° 0 mm 1 mps 749 mmHg 84%
    Show more